Torna al catalogo

HULIANWANG DIGUI-145

AttivoComunicazioniLEO
NORAD 67443·PAYLOAD·🇨🇳 China

Lanciato Jan 13, 2026 da Wenchang Space Launch Site

Loading…

Prossimi Passaggi (prossime 24 ore)

TLE

AggiornatoSource: Space-Track

Epoca: Sep 14, 2026, 21:04 UTC

1 67443U 26007J   26257.87836837 -.00000093  00000-0  67677-4 0  9991
2 67443  50.0084 123.8645 0000413   9.3059 350.7821 13.29329462 32727

Traccia HULIANWANG DIGUI-145 in tempo reale con AllMySat

Download on the App Store